Overview Statistics Trail Chart Weather Telemetry Raw packets
 

This is the latest recevied weather packets stored in our database for station/object K1BES. If no packets are shown the sender has not sent any weather packets the latest 10 day(s).

<< 56 57 58 59 60 61 62 >>
Time Temp. Humidity Pressure Rain* Wind** Luminosity Snow
1788265321 25.56° C 97% 1018.1 hPa 0 mm - 50 W/m² -
1788265015 25.56° C 97% 1018 hPa 0 mm - 39 W/m² -
1788264711 25° C 97% 1018.2 hPa 0 mm - 36 W/m² -
1788264410 25° C 97% 1018.2 hPa 0 mm - 32 W/m² -
1788264105 25° C 97% 1018.3 hPa 0 mm - 30 W/m² -
1788263801 25° C 97% 1018.1 hPa 0 mm - 28 W/m² -
1788263497 25° C 97% 1018.2 hPa 0 mm - 26 W/m² -
1788263194 24.44° C 97% 1018 hPa 0 mm - 22 W/m² -
1788262892 24.44° C 97% 1018.1 hPa 0 mm - 20 W/m² -
1788262591 24.44° C 97% 1018 hPa 0 mm - 18 W/m² -
1788262287 24.44° C 97% 1017.9 hPa 0 mm - 16 W/m² -
1788261981 24.44° C 97% 1017.8 hPa 0 mm - 13 W/m² -
1788261681 24.44° C 97% 1017.9 hPa 0 mm - 10 W/m² -
1788261381 24.44° C 97% 1017.9 hPa 0 mm - 7 W/m² -
1788261080 24.44° C 97% 1017.7 hPa 0 mm - 4 W/m² -
1788260775 24.44° C 97% 1017.9 hPa 0 mm - 2 W/m² -
1788260470 24.44° C 97% 1017.7 hPa 0 mm - 1 W/m² -
1788260167 24.44° C 97% 1017.8 hPa 0 mm - 0 W/m² -
1788259866 24.44° C 97% 1018 hPa 0 mm - 0 W/m² -
1788259563 24.44° C 97% 1017.5 hPa 0 mm - 0 W/m² -
1788259257 24.44° C 97% 1017.8 hPa 0 mm - 0 W/m² -
1788258957 24.44° C 97% 1017.7 hPa 0 mm - 0 W/m² -
1788258653 24.44° C 97% 1017.7 hPa 0 mm - 0 W/m² -
1788258353 24.44° C 97% 1017.4 hPa 0 mm - 0 W/m² -
1788258047 24.44° C 97% 1017.7 hPa 0 mm - 0 W/m² -

* Rain latest hour (hover to see other rain measurements)
** Current wind speed in m/s (hover to see current wind gust speed)